TimeIST,TemperatureF,Dew PointF,Humidity,Sea Level PressureIn,VisibilityMPH,Wind Direction,Wind SpeedMPH,Gust SpeedMPH,PrecipitationIn,Events,Conditions,WindDirDegrees,DateUTC
12:00 AM,50.0,50.0,100,30.18,6.2,WNW,6.9,-,N/A,,Partly Cloudy,290,2013-08-25 23:00:00
12:30 AM,50.0,50.0,100,30.18,6.2,WNW,6.9,-,N/A,,Partly Cloudy,290,2013-08-25 23:30:00
1:00 AM,50,50,98,30.20,37,West,6.7,,,,Scattered Clouds,280,2013-08-26 00:00:00
1:00 AM,50.0,50.0,100,30.18,6.2,West,6.9,-,N/A,,Partly Cloudy,280,2013-08-26 00:00:00
1:30 AM,50.0,50.0,100,30.18,6.2,West,6.9,-,N/A,,Partly Cloudy,280,2013-08-26 00:30:00
2:00 AM,50.0,50.0,100,30.18,6.2,West,6.9,-,N/A,,Partly Cloudy,280,2013-08-26 01:00:00
2:30 AM,48.2,48.2,100,30.18,6.2,WNW,5.8,-,N/A,,Partly Cloudy,290,2013-08-26 01:30:00
3:00 AM,48.2,48.2,100,30.18,6.2,WNW,4.6,-,N/A,,Partly Cloudy,300,2013-08-26 02:00:00
3:30 AM,46.4,46.4,100,30.18,6.2,WNW,5.8,-,N/A,,Partly Cloudy,300,2013-08-26 02:30:00
4:00 AM,46.4,46.4,100,30.18,6.2,WNW,4.6,-,N/A,,Partly Cloudy,300,2013-08-26 03:00:00
4:30 AM,46.4,46.4,100,30.18,6.2,WNW,5.8,-,N/A,,Partly Cloudy,300,2013-08-26 03:30:00
5:00 AM,46.4,46.4,100,30.18,6.2,Variable,1.2,-,N/A,,Mostly Cloudy,0,2013-08-26 04:00:00
5:30 AM,51.8,51.8,100,30.18,6.2,WNW,3.5,-,N/A,,Mostly Cloudy,300,2013-08-26 04:30:00
6:00 AM,51.8,51.8,100,30.18,6.2,West,3.5,-,N/A,,Mostly Cloudy,280,2013-08-26 05:00:00
6:30 AM,53.6,53.6,100,30.18,6.2,Variable,3.5,-,N/A,,Mostly Cloudy,0,2013-08-26 05:30:00
7:00 AM,53,53,100,30.20,16,WNW,6.7,,,,Mostly Cloudy,290,2013-08-26 06:00:00
7:00 AM,53.6,53.6,100,30.18,6.2,WNW,5.8,-,N/A,,Mostly Cloudy,290,2013-08-26 06:00:00
7:30 AM,53.6,53.6,100,30.18,6.2,West,4.6,-,N/A,,Mostly Cloudy,260,2013-08-26 06:30:00
8:00 AM,53.6,53.6,100,30.18,6.2,West,5.8,-,N/A,,Mostly Cloudy,280,2013-08-26 07:00:00
8:30 AM,55.4,55.4,100,30.18,6.2,Variable,3.5,-,N/A,,Mostly Cloudy,0,2013-08-26 07:30:00
9:00 AM,55.4,55.4,100,30.18,6.2,Variable,1.2,-,N/A,,Mostly Cloudy,0,2013-08-26 08:00:00
9:30 AM,57.2,55.4,94,30.18,6.2,Variable,3.5,-,N/A,,Mostly Cloudy,0,2013-08-26 08:30:00
10:00 AM,57.2,55.4,94,30.18,6.2,Variable,3.5,-,N/A,,Mostly Cloudy,0,2013-08-26 09:00:00
10:30 AM,59.0,55.4,88,30.18,6.2,Variable,2.3,-,N/A,,Mostly Cloudy,0,2013-08-26 09:30:00
11:00 AM,62.6,55.4,77,30.18,6.2,Variable,3.5,-,N/A,,Mostly Cloudy,0,2013-08-26 10:00:00
11:30 AM,62.6,53.6,72,30.18,6.2,Variable,3.5,-,N/A,,Mostly Cloudy,0,2013-08-26 10:30:00
12:00 PM,64.4,55.4,73,30.18,6.2,Variable,2.3,-,N/A,,Mostly Cloudy,0,2013-08-26 11:00:00
12:30 PM,64.4,55.4,73,30.18,6.2,Variable,3.5,-,N/A,,Mostly Cloudy,0,2013-08-26 11:30:00
1:00 PM,65,54,60,30.18,25,WNW,4.5,,,,Mostly Cloudy,300,2013-08-26 12:00:00
1:00 PM,64.4,53.6,68,30.18,6.2,Variable,3.5,-,N/A,,Mostly Cloudy,0,2013-08-26 12:00:00
1:30 PM,64.4,55.4,73,30.15,6.2,Variable,3.5,-,N/A,,Mostly Cloudy,0,2013-08-26 12:30:00
2:00 PM,64.4,53.6,68,30.15,6.2,WNW,4.6,-,N/A,,Mostly Cloudy,300,2013-08-26 13:00:00
2:30 PM,64.4,55.4,73,30.15,6.2,West,4.6,-,N/A,,Mostly Cloudy,260,2013-08-26 13:30:00
3:00 PM,64.4,57.2,77,30.15,6.2,WNW,6.9,-,N/A,,Mostly Cloudy,300,2013-08-26 14:00:00
3:30 PM,64.4,55.4,73,30.15,6.2,NW,4.6,-,N/A,,Mostly Cloudy,310,2013-08-26 14:30:00
4:00 PM,64.4,55.4,73,30.15,6.2,ESE,8.1,-,N/A,,Mostly Cloudy,120,2013-08-26 15:00:00
4:30 PM,62.6,55.4,77,30.15,6.2,ESE,6.9,-,N/A,,Mostly Cloudy,110,2013-08-26 15:30:00
5:00 PM,62.6,55.4,77,30.12,6.2,ESE,5.8,-,N/A,,Mostly Cloudy,110,2013-08-26 16:00:00
5:30 PM,62.6,55.4,77,30.12,6.2,ESE,5.8,-,N/A,,Mostly Cloudy,110,2013-08-26 16:30:00
6:00 PM,62.6,55.4,77,30.12,6.2,ESE,5.8,-,N/A,,Mostly Cloudy,110,2013-08-26 17:00:00
6:30 PM,62.6,53.6,72,30.12,6.2,ESE,4.6,-,N/A,,Mostly Cloudy,120,2013-08-26 17:30:00
7:00 PM,62,54,69,30.15,19,SSE,4.5,,,,Mostly Cloudy,160,2013-08-26 18:00:00
7:00 PM,60.8,53.6,77,30.12,6.2,SE,4.6,-,N/A,,Mostly Cloudy,140,2013-08-26 18:00:00
7:30 PM,60.8,53.6,77,30.15,6.2,SW,4.6,-,N/A,,Mostly Cloudy,220,2013-08-26 18:30:00
8:00 PM,59.0,53.6,82,30.15,6.2,WNW,8.1,-,N/A,,Mostly Cloudy,290,2013-08-26 19:00:00
8:30 PM,59.0,53.6,82,30.15,6.2,NW,8.1,-,N/A,,Mostly Cloudy,310,2013-08-26 19:30:00
9:00 PM,57.2,53.6,88,30.15,6.2,WNW,9.2,-,N/A,,Mostly Cloudy,290,2013-08-26 20:00:00
9:30 PM,55.4,51.8,88,30.15,6.2,West,6.9,-,N/A,,Scattered Clouds,280,2013-08-26 20:30:00
10:00 PM,53.6,50.0,88,30.15,6.2,West,5.8,-,N/A,,Scattered Clouds,270,2013-08-26 21:00:00
10:30 PM,50.0,46.4,87,30.15,6.2,West,5.8,-,N/A,,Scattered Clouds,280,2013-08-26 21:30:00
11:00 PM,51.8,50.0,94,30.12,6.2,West,6.9,-,N/A,,Scattered Clouds,270,2013-08-26 22:00:00
11:30 PM,51.8,50.0,94,30.15,6.2,West,8.1,-,N/A,,Scattered Clouds,270,2013-08-26 22:30:00